SCP
0 0 0 0 0 0 0 0 0 0 0 0 0 0 0 0 0 0 0 0 0 0 0 0 0 0 0 0 0 0 0 0 0 0 0 0 0 0 0 0 0 0 0 0 0
0 0 0 0 0 0 0 0 0 0 0 0 0 0 0 0 0 0 0 0 0 0 0 0 0 0 0 0 0 0 0 0 0 0 0 0 0 0 0 0 0 0 0 0 0
0 0 0 0 0 0 0 0 0 0 0 0 0 0 0 0 0 0 0 0 0 0 0 0 -0 0 0 -0 -0 0 0 0 0 0 0 0 0 0 0 0 0 0 0 0 0
0 0 0 0 0 0 0 0 0 0 0 0 0 0 0 0 0 0 0 0 0 0 0 0 -0 0 -0 -0 0 0 0 0 0 0 0 0 0 0 0 0 0 0 0 0 0
0 0 0 0 0 0 0 0 0 0 0 0 0 0 0 0 0 0 0 0 0 0 0 0 0 -0 -0 0 0 0 0 0 0 0 0 0 0 0 0 0 -0 0 0 0 0
0 0 0 0 0 0 0 0 0 0 0 0 0 0 0 0 0 0 0 0 0 0 0 -0 -0 -0 -0 0 0 0 0 0 0 0 0 0 0 0 0 0 0 0 0 0 0
0 0 0 0 0 0 0 0 0 0 0 0 0 0 0 0 0 0 0 0 0 0 0 -0 0 -0 -0 -0 0 0 0 0 0 0 0 0 0 0 0 -0 -0 0 0 0 0
0 0 0 0 0 0 0 0 0 0 0 0 0 0 0 0 0 0 0 0 0 0 0 0 0 0 -0 -0 0 0 0 0 0 0 0 0 0 0 0 -0 0 0 0 0 0
0 0 0 0 0 0 0 0 0 0 0 0 0 0 0 0 0 0 0 0 0 0 0 0 0 0 0 0 0 0 0 0 0 0 0 0 0 0 0 -0 -0 0 0 0 0
0 0 0 0 0 0 0 0 0 0 0 0 0 0 0 0 0 0 0 0 0 0 0 0 0 0 0 -0 -0 0 0 0 0 0 0 0 0 0 0 -0 -0 0 0 0 0
0 0 0 0 0 0 0 0 0 0 0 0 0 0 0 0 0 0 0 0 0 0 0 0 0 0 0 0 0 0 0 0 0 0 0 0 0 0 0 0 0 0 0 0 0
0 0 0 0 0 0 0 0 0 0 0 0 0 0 0 0 0 0 0 0 0 0 0 0 0 0 0 0 0 0 0 0 0 0 0 0 0 0 0 0 0 0 0 0 0
0 0 0 0 0 0 0 0 0 0 0 0 0 0 0 0 0 0 0 0 0 0 0 0 0 0 0 0 0 0 0 0 0 0 0 0 0 0 0 0 0 0 0 0 -0
0 0 0 0 0 0 0 0 0 0 0 0 0 0 -0 0 0 0 0 0 0 0 0 0 0 0 0 0 0 0 0 0 0 0 -0 0 -0 0 0 0 0 0 0 0 0
0 0 0 0 0 0 0 0 0 0 0 0 0 -0 -0 0 0 0 0 0 0 0 0 0 0 0 0 0 0 0 0 0 0 0 0 -0 -0 0 0 0 0 0 -0 -0 -0
0 0 0 0 0 0 0 0 0 0 0 0 0 0 0 0 0 0 0 0 0 0 0 0 0 0 0 0 0 0 0 0 0 0 0 0 -0 -0 -0 -0 -0 0 0 -0 -0
0 0 0 0 0 0 0 0 0 0 0 0 0 0 0 0 0 0 0 0 0 0 0 0 0 0 0 0 0 0 0 0 -0 0 0 0 0 -0 -0 -0 -0 -0 -0 0 -0
0 0 0 0 0 0 0 0 0 0 -0 0 0 0 0 -0 0 0 0 0 0 0 0 0 0 0 0 0 0 0 0 0 0 0 0 0 0 -0 -0 0 0 -0 -0 0 0
0 0 0 0 0 0 0 0 0 0 0 0 0 0 -0 0 0 0 0 0 0 0 0 0 0 0 0 0 0 0 0 0 0 0 0 0 0 0 0 0 0 0 0 0 0
0 0 0 0 0 0 0 0 0 0 0 0 0 0 0 0 0 0 0 0 0 0 0 0 0 0 0 0 0 0 0 0 0 0 0 0 0 0 0 0 0 0 0 0 0
0 0 0 0 0 0 0 0 0 0 0 0 0 0 0 0 0 0 0 0 0 0 0 0 0 0 0 0 0 0 0 0 0 0 0 0 0 0 0 0 0 0 0 0 0
0 0 0 0 0 0 0 0 0 0 0 0 0 0 0 0 0 0 0 0 0 0 0 0 0 0 0 0 0 0 0 0 0 0 0 0 0 -0 0 0 0 0 0 0 0
0 0 0 0 0 0 0 0 0 0 0 0 0 0 0 0 0 0 0 0 0 0 0 0 0 0 0 0 0 0 0 0 0 0 0 0 0 0 0 0 0 0 0 0 0
0 0 0 0 0 0 0 0 0 0 0 0 0 0 0 0 0 0 0 0 0 0 0 0 0 0 0 0 0 0 0 0 0 0 0 0 0 0 0 0 0 0 0 0 0
0 0 0 0 0 0 0 0 0 0 0 0 0 0 0 0 0 0 0 0 0 0 0 0 0 0 0 0 0 0 0 0 0 0 0 0 0 0 0 0 0 0 0 0 0
0 0 0 0 0 0 0 0 0 0 0 0 0 0 0 0 0 0 0 0 0 0 0 0 0 0 0 0 0 0 0 0 0 0 0 0 -0 0 0 0 0 0 0 0 0
0 0 0 0 0 0 0 0 0 0 0 0 0 0 0 0 0 0 0 0 0 0 0 0 0 0 0 0 0 0 0 0 0 0 0 0 0 0 0 0 0 0 0 0 0
Wind_Speed_500mb
10 11 13 13 15 16 17 17 17 17 18 21 19 15 11 6 24 30 34 33 35 36 31 18 14 21 21 21 17 7 8 3 6 7 13 20 14 13 22 20 34 22 30 36 45
9 10 11 14 15 17 17 17 17 16 17 20 17 14 8 6 13 40 36 30 29 35 31 31 32 27 17 16 15 13 7 1 5 4 10 15 14 33 14 31 29 36 36 45 39
9 9 10 11 13 15 15 15 15 15 16 16 13 12 9 4 6 27 32 29 30 37 28 23 13 22 20 15 19 11 6 8 5 17 17 16 20 12 16 12 17 37 58 45 46
8 8 9 10 12 13 13 14 14 16 16 14 11 7 15 6 5 21 26 24 29 36 30 34 24 13 11 10 13 8 10 14 19 19 16 13 22 16 28 51 42 50 59 54 34
7 7 9 10 11 12 13 12 12 14 13 10 8 5 6 13 14 19 20 24 28 31 46 30 44 12 9 7 7 8 13 21 28 30 16 23 19 14 37 46 60 69 51 36 25
6 5 7 9 11 12 12 12 12 13 9 8 5 6 6 10 15 18 14 16 25 33 41 45 25 19 16 8 7 8 14 16 26 45 10 21 20 17 44 67 62 43 32 12 22
6 5 7 9 10 11 11 12 11 9 7 6 7 14 17 11 13 17 16 15 20 25 29 34 26 18 8 3 7 4 8 12 19 45 10 39 9 18 65 62 25 10 11 14 37
5 4 6 8 10 10 11 11 9 6 5 5 6 4 9 7 11 14 13 10 15 18 20 24 20 16 9 5 7 9 10 11 13 31 15 15 11 33 67 63 22 30 47 51 66
5 3 5 8 10 9 9 7 5 5 6 7 6 4 6 6 9 17 16 11 10 16 15 18 13 12 8 7 8 15 3 6 14 10 13 21 14 34 48 47 42 44 46 75 64
5 4 5 6 8 9 7 4 6 7 6 8 10 5 6 8 7 15 16 9 8 10 7 15 12 8 9 12 1 6 5 7 9 13 13 26 21 26 46 45 43 42 54 64 59
8 5 4 5 6 6 5 4 4 4 13 11 8 6 7 10 7 18 16 7 8 9 8 12 13 2 4 4 7 8 5 3 8 9 17 16 19 23 39 46 44 42 66 61 56
9 6 5 4 5 7 4 4 5 9 14 13 8 7 8 11 5 22 14 5 8 6 4 11 3 4 9 5 4 5 3 7 12 7 9 13 14 16 32 34 42 47 63 40 44
11 7 5 3 2 6 11 11 9 8 7 9 11 7 7 8 7 19 17 7 8 6 9 9 4 14 4 3 8 5 7 5 10 8 2 9 10 23 23 36 49 56 34 47 46
14 9 5 1 4 7 9 10 7 4 9 10 7 7 7 4 6 14 15 7 6 2 4 4 3 7 2 7 2 8 7 4 5 9 5 6 4 10 16 24 40 46 45 50 57
14 9 5 3 3 5 7 7 5 6 7 3 7 5 7 8 3 7 11 5 5 1 6 3 5 4 6 8 6 13 9 9 1 4 4 15 7 12 5 18 22 36 48 50 51
13 9 7 5 6 8 7 5 5 11 7 4 5 9 5 10 7 10 4 5 5 4 5 4 3 4 4 4 5 10 9 7 5 3 6 10 2 9 8 9 8 29 37 42 47
14 10 10 7 6 8 7 5 10 9 10 9 3 7 5 9 8 11 9 11 4 9 9 9 3 2 1 1 3 4 8 7 11 10 6 6 7 8 1 4 3 7 19 29 37
14 12 12 9 8 8 6 9 11 5 9 5 5 5 5 11 7 11 4 5 8 8 6 6 11 5 7 5 1 5 4 7 4 6 11 8 3 6 4 6 4 10 11 23 27
17 14 12 10 9 8 3 9 13 12 7 9 4 9 9 7 4 9 3 3 2 6 7 6 8 6 6 4 2 2 6 1 9 2 4 8 7 7 7 4 4 6 16 22 22
18 17 12 13 11 10 8 6 6 8 5 3 7 3 4 5 6 6 5 5 4 1 2 8 6 2 4 3 5 3 4 4 6 5 8 8 9 7 15 16 11 9 18 21 26
23 13 14 17 12 3 7 11 7 9 6 5 8 5 3 3 4 3 4 2 2 3 1 7 4 8 3 4 4 4 1 6 4 4 5 7 11 8 11 17 19 18 13 22 25
23 6 20 25 4 6 5 11 6 8 5 4 6 6 8 8 3 3 4 4 1 3 6 2 5 6 6 5 3 3 3 4 7 6 4 4 11 5 9 22 34 28 24 21 27
29 13 23 30 6 4 4 4 4 4 9 8 6 5 2 7 1 6 4 2 1 3 2 4 4 7 14 10 3 6 7 4 6 4 10 9 10 6 8 18 29 36 30 28 27
20 6 10 16 6 8 9 5 4 7 3 7 8 8 6 3 5 6 6 2 3 2 2 3 1 9 10 5 3 6 9 10 8 5 6 11 8 6 10 15 26 35 34 32 30
18 6 12 7 11 11 4 9 8 8 6 13 2 10 12 7 1 8 4 3 2 5 4 6 5 4 10 11 7 10 13 14 17 11 12 6 12 11 20 24 48 46 40 38 35
31 18 14 8 15 19 7 13 20 8 16 10 9 16 14 12 13 16 12 8 8 4 9 3 4 5 10 11 6 14 23 24 25 17 20 17 37 16 14 42 43 50 50 48 45
36 38 27 18 12 9 13 16 20 21 25 10 22 12 14 20 12 6 10 12 14 14 9 8 9 6 11 7 14 16 17 30 11 13 23 22 23 15 11 33 60 67 65 60 53
Wind_Direction_500mb
311 325 331 342 344 348 350 354 358 359 358 356 2 16 22 99 34 28 33 19 4 7 16 34 56 77 66 58 50 21 63 69 2 359 293 332 348 320 317 277 314 293 302 314 327
298 314 330 340 343 346 347 350 355 354 356 356 2 13 9 182 9 30 22 11 15 21 26 42 52 63 60 36 24 50 66 177 188 239 262 285 292 307 310 299 294 292 274 304 323
289 313 331 343 344 345 343 349 349 348 352 355 3 17 30 149 33 18 13 17 27 24 25 31 51 70 59 44 15 3 52 330 289 306 287 285 285 278 288 284 272 293 303 308 322
287 314 334 343 344 341 345 347 347 344 348 355 4 34 54 73 89 14 20 31 35 27 30 37 49 62 66 52 17 66 13 357 297 303 303 295 297 296 268 270 287 301 295 295 313
293 326 333 344 341 342 342 340 347 340 347 359 12 88 63 68 48 26 34 43 38 29 33 40 46 64 81 66 36 38 358 341 346 341 326 294 273 274 283 304 297 299 287 284 287
282 312 325 337 342 336 337 342 346 340 356 9 38 71 70 74 41 35 38 35 33 30 34 40 46 68 87 68 74 335 322 301 339 356 9 346 316 6 319 313 301 295 270 267 310
273 304 328 339 336 334 339 342 346 345 3 34 92 94 80 82 41 30 28 26 24 26 31 36 39 54 79 88 27 348 21 343 337 352 318 334 33 350 333 349 354 330 69 28 355
258 296 331 332 334 342 343 344 349 360 19 52 143 107 81 63 25 18 20 28 16 22 27 29 36 65 50 0 27 39 54 16 315 353 310 348 349 351 348 1 28 57 52 28 17
243 280 322 331 334 343 341 354 13 28 71 69 96 110 78 39 25 15 14 25 18 12 32 29 38 55 44 57 28 15 38 355 309 12 333 25 347 346 1 4 7 29 21 25 15
239 273 314 322 335 347 347 38 90 84 85 88 78 105 55 354 21 12 2 16 10 12 16 27 42 59 24 40 5 290 1 327 282 327 352 10 12 0 2 15 16 20 33 26 13
233 267 276 309 349 6 5 97 125 63 51 71 33 74 11 358 32 7 2 14 12 49 29 14 58 48 330 75 142 135 125 241 266 270 352 350 357 1 10 18 20 29 33 28 7
232 233 259 311 2 29 56 92 84 137 88 63 48 47 39 22 39 18 16 44 30 52 41 17 36 156 129 138 113 94 57 289 280 296 321 346 18 19 27 24 26 36 38 21 11
231 231 254 287 46 75 80 98 112 121 81 44 47 22 18 27 45 9 18 38 45 42 38 110 276 147 61 320 330 268 253 216 227 322 7 301 344 15 12 35 36 40 27 34 25
217 219 224 222 123 102 99 107 125 116 79 324 4 12 5 29 57 14 18 44 44 81 75 115 184 172 162 300 94 305 265 235 252 22 317 39 290 18 1 18 25 20 21 17 37
218 211 204 144 108 118 125 123 133 123 44 305 330 342 9 70 335 13 17 45 119 246 94 234 150 154 220 242 147 255 311 284 295 333 50 337 63 316 12 17 15 10 16 22 36
203 193 174 129 121 122 116 114 122 47 266 358 311 345 4 28 21 339 7 50 91 115 10 252 291 159 231 298 215 296 310 296 3 58 47 298 26 317 4 342 15 9 19 26 41
186 190 175 149 123 126 121 117 45 114 0 297 9 25 50 350 5 31 24 16 96 57 357 340 157 330 351 12 346 26 21 346 354 7 236 335 18 271 259 66 45 6 20 35 44
190 179 173 155 140 130 124 56 82 213 226 304 5 38 68 358 24 7 42 33 26 60 87 84 337 10 351 83 259 35 71 136 238 327 296 352 62 255 211 171 54 47 62 64 58
188 177 170 157 148 140 122 58 191 193 168 145 70 63 327 2 353 27 47 174 346 38 122 71 299 319 35 13 73 336 58 197 110 65 20 306 291 95 139 198 187 88 67 67 65
191 168 172 161 152 141 78 211 152 176 155 169 130 145 173 277 21 33 343 261 132 105 158 197 352 302 297 103 6 60 165 54 6 35 314 297 280 235 194 203 200 168 129 112 98
178 157 168 163 151 148 147 210 207 188 169 132 170 121 207 199 175 226 242 256 272 179 80 152 100 283 43 21 171 6 353 73 116 142 180 315 274 211 220 178 178 176 145 120 110
174 104 163 162 97 4 149 179 155 158 159 113 113 117 165 158 147 267 244 270 288 189 160 248 133 258 206 153 235 178 246 151 127 242 226 159 275 358 274 181 169 163 157 144 125
161 123 167 171 137 271 333 343 193 130 173 147 146 136 154 152 55 185 242 38 259 314 159 202 327 351 344 359 351 200 191 204 114 73 213 146 262 39 99 152 171 167 171 159 144
155 116 128 190 182 150 153 176 184 205 151 144 124 115 104 116 353 200 207 165 178 162 47 352 212 194 205 218 133 246 192 196 168 141 206 230 270 244 198 185 182 185 181 172 165
159 185 169 181 230 165 166 131 143 166 207 194 57 199 171 142 89 237 289 164 189 168 94 105 220 338 283 266 250 250 228 197 204 209 196 268 223 242 215 201 197 191 185 183 181
162 151 160 147 138 131 200 220 173 196 151 232 207 183 176 173 189 195 153 199 196 127 149 71 261 67 295 328 298 268 242 232 232 232 256 261 271 212 256 209 202 199 193 193 192
179 165 164 156 149 142 204 192 202 154 208 193 179 122 189 224 171 123 149 135 165 157 154 136 133 79 271 339 322 293 229 204 187 204 205 214 228 162 188 194 203 203 201 199 197
Wind_Speed_850mb
10 11 13 13 15 16 17 17 17 17 18 21 19 15 11 6 24 30 34 33 35 36 31 18 14 21 21 21 17 7 8 3 6 7 13 20 14 13 22 20 34 22 30 36 45
9 10 11 14 15 17 17 17 17 16 17 20 17 14 8 6 13 40 36 30 29 35 31 31 32 27 17 16 15 13 7 1 5 4 10 15 14 33 14 31 29 36 36 45 39
9 9 10 11 13 15 15 15 15 15 16 16 13 12 9 4 6 27 32 29 30 37 28 23 13 22 20 15 19 11 6 8 5 17 17 16 20 12 16 12 17 37 58 45 46
8 8 9 10 12 13 13 14 14 16 16 14 11 7 15 6 5 21 26 24 29 36 30 34 24 13 11 10 13 8 10 14 19 19 16 13 22 16 28 51 42 50 59 54 34
7 7 9 10 11 12 13 12 12 14 13 10 8 5 6 13 14 19 20 24 28 31 46 30 44 12 9 7 7 8 13 21 28 30 16 23 19 14 37 46 60 69 51 36 25
6 5 7 9 11 12 12 12 12 13 9 8 5 6 6 10 15 18 14 16 25 33 41 45 25 19 16 8 7 8 14 16 26 45 10 21 20 17 44 67 62 43 32 12 22
6 5 7 9 10 11 11 12 11 9 7 6 7 14 17 11 13 17 16 15 20 25 29 34 26 18 8 3 7 4 8 12 19 45 10 39 9 18 65 62 25 10 11 14 37
5 4 6 8 10 10 11 11 9 6 5 5 6 4 9 7 11 14 13 10 15 18 20 24 20 16 9 5 7 9 10 11 13 31 15 15 11 33 67 63 22 30 47 51 66
5 3 5 8 10 9 9 7 5 5 6 7 6 4 6 6 9 17 16 11 10 16 15 18 13 12 8 7 8 15 3 6 14 10 13 21 14 34 48 47 42 44 46 75 64
5 4 5 6 8 9 7 4 6 7 6 8 10 5 6 8 7 15 16 9 8 10 7 15 12 8 9 12 1 6 5 7 9 13 13 26 21 26 46 45 43 42 54 64 59
8 5 4 5 6 6 5 4 4 4 13 11 8 6 7 10 7 18 16 7 8 9 8 12 13 2 4 4 7 8 5 3 8 9 17 16 19 23 39 46 44 42 66 61 56
9 6 5 4 5 7 4 4 5 9 14 13 8 7 8 11 5 22 14 5 8 6 4 11 3 4 9 5 4 5 3 7 12 7 9 13 14 16 32 34 42 47 63 40 44
11 7 5 3 2 6 11 11 9 8 7 9 11 7 7 8 7 19 17 7 8 6 9 9 4 14 4 3 8 5 7 5 10 8 2 9 10 23 23 36 49 56 34 47 46
14 9 5 1 4 7 9 10 7 4 9 10 7 7 7 4 6 14 15 7 6 2 4 4 3 7 2 7 2 8 7 4 5 9 5 6 4 10 16 24 40 46 45 50 57
14 9 5 3 3 5 7 7 5 6 7 3 7 5 7 8 3 7 11 5 5 1 6 3 5 4 6 8 6 13 9 9 1 4 4 15 7 12 5 18 22 36 48 50 51
13 9 7 5 6 8 7 5 5 11 7 4 5 9 5 10 7 10 4 5 5 4 5 4 3 4 4 4 5 10 9 7 5 3 6 10 2 9 8 9 8 29 37 42 47
14 10 10 7 6 8 7 5 10 9 10 9 3 7 5 9 8 11 9 11 4 9 9 9 3 2 1 1 3 4 8 7 11 10 6 6 7 8 1 4 3 7 19 29 37
14 12 12 9 8 8 6 9 11 5 9 5 5 5 5 11 7 11 4 5 8 8 6 6 11 5 7 5 1 5 4 7 4 6 11 8 3 6 4 6 4 10 11 23 27
17 14 12 10 9 8 3 9 13 12 7 9 4 9 9 7 4 9 3 3 2 6 7 6 8 6 6 4 2 2 6 1 9 2 4 8 7 7 7 4 4 6 16 22 22
18 17 12 13 11 10 8 6 6 8 5 3 7 3 4 5 6 6 5 5 4 1 2 8 6 2 4 3 5 3 4 4 6 5 8 8 9 7 15 16 11 9 18 21 26
23 13 14 17 12 3 7 11 7 9 6 5 8 5 3 3 4 3 4 2 2 3 1 7 4 8 3 4 4 4 1 6 4 4 5 7 11 8 11 17 19 18 13 22 25
23 6 20 25 4 6 5 11 6 8 5 4 6 6 8 8 3 3 4 4 1 3 6 2 5 6 6 5 3 3 3 4 7 6 4 4 11 5 9 22 34 28 24 21 27
29 13 23 30 6 4 4 4 4 4 9 8 6 5 2 7 1 6 4 2 1 3 2 4 4 7 14 10 3 6 7 4 6 4 10 9 10 6 8 18 29 36 30 28 27
20 6 10 16 6 8 9 5 4 7 3 7 8 8 6 3 5 6 6 2 3 2 2 3 1 9 10 5 3 6 9 10 8 5 6 11 8 6 10 15 26 35 34 32 30
18 6 12 7 11 11 4 9 8 8 6 13 2 10 12 7 1 8 4 3 2 5 4 6 5 4 10 11 7 10 13 14 17 11 12 6 12 11 20 24 48 46 40 38 35
31 18 14 8 15 19 7 13 20 8 16 10 9 16 14 12 13 16 12 8 8 4 9 3 4 5 10 11 6 14 23 24 25 17 20 17 37 16 14 42 43 50 50 48 45
36 38 27 18 12 9 13 16 20 21 25 10 22 12 14 20 12 6 10 12 14 14 9 8 9 6 11 7 14 16 17 30 11 13 23 22 23 15 11 33 60 67 65 60 53
Wind_Direction_850mb
311 325 331 342 344 348 350 354 358 359 358 356 2 16 22 99 34 28 33 19 4 7 16 34 56 77 66 58 50 21 63 69 2 359 293 332 348 320 317 277 314 293 302 314 327
298 314 330 340 343 346 347 350 355 354 356 356 2 13 9 182 9 30 22 11 15 21 26 42 52 63 60 36 24 50 66 177 188 239 262 285 292 307 310 299 294 292 274 304 323
289 313 331 343 344 345 343 349 349 348 352 355 3 17 30 149 33 18 13 17 27 24 25 31 51 70 59 44 15 3 52 330 289 306 287 285 285 278 288 284 272 293 303 308 322
287 314 334 343 344 341 345 347 347 344 348 355 4 34 54 73 89 14 20 31 35 27 30 37 49 62 66 52 17 66 13 357 297 303 303 295 297 296 268 270 287 301 295 295 313
293 326 333 344 341 342 342 340 347 340 347 359 12 88 63 68 48 26 34 43 38 29 33 40 46 64 81 66 36 38 358 341 346 341 326 294 273 274 283 304 297 299 287 284 287
282 312 325 337 342 336 337 342 346 340 356 9 38 71 70 74 41 35 38 35 33 30 34 40 46 68 87 68 74 335 322 301 339 356 9 346 316 6 319 313 301 295 270 267 310
273 304 328 339 336 334 339 342 346 345 3 34 92 94 80 82 41 30 28 26 24 26 31 36 39 54 79 88 27 348 21 343 337 352 318 334 33 350 333 349 354 330 69 28 355
258 296 331 332 334 342 343 344 349 360 19 52 143 107 81 63 25 18 20 28 16 22 27 29 36 65 50 0 27 39 54 16 315 353 310 348 349 351 348 1 28 57 52 28 17
243 280 322 331 334 343 341 354 13 28 71 69 96 110 78 39 25 15 14 25 18 12 32 29 38 55 44 57 28 15 38 355 309 12 333 25 347 346 1 4 7 29 21 25 15
239 273 314 322 335 347 347 38 90 84 85 88 78 105 55 354 21 12 2 16 10 12 16 27 42 59 24 40 5 290 1 327 282 327 352 10 12 0 2 15 16 20 33 26 13
233 267 276 309 349 6 5 97 125 63 51 71 33 74 11 358 32 7 2 14 12 49 29 14 58 48 330 75 142 135 125 241 266 270 352 350 357 1 10 18 20 29 33 28 7
232 233 259 311 2 29 56 92 84 137 88 63 48 47 39 22 39 18 16 44 30 52 41 17 36 156 129 138 113 94 57 289 280 296 321 346 18 19 27 24 26 36 38 21 11
231 231 254 287 46 75 80 98 112 121 81 44 47 22 18 27 45 9 18 38 45 42 38 110 276 147 61 320 330 268 253 216 227 322 7 301 344 15 12 35 36 40 27 34 25
217 219 224 222 123 102 99 107 125 116 79 324 4 12 5 29 57 14 18 44 44 81 75 115 184 172 162 300 94 305 265 235 252 22 317 39 290 18 1 18 25 20 21 17 37
218 211 204 144 108 118 125 123 133 123 44 305 330 342 9 70 335 13 17 45 119 246 94 234 150 154 220 242 147 255 311 284 295 333 50 337 63 316 12 17 15 10 16 22 36
203 193 174 129 121 122 116 114 122 47 266 358 311 345 4 28 21 339 7 50 91 115 10 252 291 159 231 298 215 296 310 296 3 58 47 298 26 317 4 342 15 9 19 26 41
186 190 175 149 123 126 121 117 45 114 0 297 9 25 50 350 5 31 24 16 96 57 357 340 157 330 351 12 346 26 21 346 354 7 236 335 18 271 259 66 45 6 20 35 44
190 179 173 155 140 130 124 56 82 213 226 304 5 38 68 358 24 7 42 33 26 60 87 84 337 10 351 83 259 35 71 136 238 327 296 352 62 255 211 171 54 47 62 64 58
188 177 170 157 148 140 122 58 191 193 168 145 70 63 327 2 353 27 47 174 346 38 122 71 299 319 35 13 73 336 58 197 110 65 20 306 291 95 139 198 187 88 67 67 65
191 168 172 161 152 141 78 211 152 176 155 169 130 145 173 277 21 33 343 261 132 105 158 197 352 302 297 103 6 60 165 54 6 35 314 297 280 235 194 203 200 168 129 112 98
178 157 168 163 151 148 147 210 207 188 169 132 170 121 207 199 175 226 242 256 272 179 80 152 100 283 43 21 171 6 353 73 116 142 180 315 274 211 220 178 178 176 145 120 110
174 104 163 162 97 4 149 179 155 158 159 113 113 117 165 158 147 267 244 270 288 189 160 248 133 258 206 153 235 178 246 151 127 242 226 159 275 358 274 181 169 163 157 144 125
161 123 167 171 137 271 333 343 193 130 173 147 146 136 154 152 55 185 242 38 259 314 159 202 327 351 344 359 351 200 191 204 114 73 213 146 262 39 99 152 171 167 171 159 144
155 116 128 190 182 150 153 176 184 205 151 144 124 115 104 116 353 200 207 165 178 162 47 352 212 194 205 218 133 246 192 196 168 141 206 230 270 244 198 185 182 185 181 172 165
159 185 169 181 230 165 166 131 143 166 207 194 57 199 171 142 89 237 289 164 189 168 94 105 220 338 283 266 250 250 228 197 204 209 196 268 223 242 215 201 197 191 185 183 181
162 151 160 147 138 131 200 220 173 196 151 232 207 183 176 173 189 195 153 199 196 127 149 71 261 67 295 328 298 268 242 232 232 232 256 261 271 212 256 209 202 199 193 193 192
179 165 164 156 149 142 204 192 202 154 208 193 179 122 189 224 171 123 149 135 165 157 154 136 133 79 271 339 322 293 229 204 187 204 205 214 228 162 188 194 203 203 201 199 197